Regional Weather Roundup
Issued by NWS

Current Version | Previous Version | Text Only | Print | Product List | Glossary On
Versions: 1 2 3 4 5 6 7 8 9 10 11 12 13 14 15 16 17 18 19 20 21 22 23 24 25 26 27 28 29 30 31 32 33 34 35 36 37 38 39 40 41 42 43 44 45 46 47 48 49 50
000
ASUS44 KOUN 201110
RWROK

WEATHER ROUNDUP FOR OKLAHOMA
NATIONAL WEATHER SERVICE NORMAN OK
600 AM CDT WED MAR 20 2019

NOTE: "FAIR" INDICATES FEW OR NO CLOUDS BELOW 12,000 FEET WITH NO
      SIGNIFICANT WEATHER AND/OR OBSTRUCTIONS TO VISIBILITY.

OKZ001>007-009>012-014-015-017-201200-
NORTHWEST OKLAHOMA AND THE PANHANDLE

CITY           SKY/WX    TMP DP  RH WIND       PRES   REMARKS
GAGE           PTCLDY    40  35  83 N3        30.26R HAZE
GUYMON         CLOUDY    34  29  82 NW7       30.29R WCI  28
ENID/WOODRING  CLOUDY    43  41  93 N10       30.24S
$$

OKZ016-021>023-033>039-044-045-201200-
SOUTHWEST OKLAHOMA

CITY           SKY/WX    TMP DP  RH WIND       PRES   REMARKS
LAWTON/REGL    CLOUDY    52  42  69 N15       30.24R
LAWTON/FT SILL LGT RAIN  48  48 100 N14       30.23R
FREDERICK      CLOUDY    51  41  68 N20       30.21R
CLINTON        CLOUDY    46  37  71 E3        30.25S
HOBART         LGT RAIN  47  43  86 N8        30.26S
ALTUS AFB      CLOUDY    49  39  70 N15       30.24R
$$

OKZ018>020-024>031-201200-
CENTRAL OKLAHOMA

CITY           SKY/WX    TMP DP  RH WIND       PRES   REMARKS
OKLAHOMA CITY  LGT RAIN  45  42  89 NW7       30.25R
OKC/WILEY POST LGT RAIN  46  43  89 CALM      30.25R
OKC/TINKER AFB LGT RAIN  45  43  93 N8        30.25R
STILLWATER     CLOUDY    46  38  73 NW5       30.24R
GUTHRIE        LGT RAIN  44  43  96 N3        30.23S
$$

OKZ008-013-054>072-201200-
NORTHEAST OKLAHOMA

CITY           SKY/WX    TMP DP  RH WIND       PRES   REMARKS
TULSA          LGT RAIN  46  43  89 NW8       30.23S
TULSA/JONES    LGT RAIN  47  43  86 N3        30.22S
PONCA CITY     CLOUDY    43  37  79 NW6       30.24R
BARTLESVILLE   CLOUDY    44  39  82 W6        30.23R
MUSKOGEE       LGT RAIN  50  48  93 N9        30.23R
$$

OKZ032-040>043-046>053-073>077-201200-
SOUTH CENTRAL/SOUTHEAST OKLAHOMA

CITY           SKY/WX    TMP DP  RH WIND       PRES   REMARKS
ARDMORE/DWNTWN CLOUDY    54  41  62 N7        30.21R
MCALESTER      CLOUDY    53  41  63 N13G20    30.23R
$$





USA.gov is the U.S. government's official web portal to all federal, state and local government web resources and services.